sat.trackr.live / text

‹ back to catalog

STARLINK-30555

NORAD 58040 · 2023-156N

PAYLOAD ACTIVE UNKNOWN

§ Identity

Operator
Country
US
Launch date
2023-10-09
Launch site
AFWTR
Launch vehicle
Mass (kg)
RCS (m²)

Purposes: comms

External: N2YO · Heavens-Above · Gunter

§ Orbital elements

Epoch: 2026-09-20T12:02:32.479584Z

Period
93.85 min
Inclination
53.1621°
Eccentricity
0.0001004
Mean motion
15.34389138 rev/d
Perigee alt
462.0 km
Apogee alt
463.4 km
Semi-major
6,840.9 km
B*
1.1471e-4
RAAN
339.4597°
Arg perigee
98.5961°
Mean anomaly
261.5155°
Rev number
16,491

§ Raw data

STARLINK-305551 58040U 23156N   26263.50176481  .00003500  00000+0  11471-3 0  99992 58040  53.1621 339.4597 0001004  98.5961 261.5155 15.34389138164911

JSON: /api/v1/satellites/58040 · /tle

For live sub-satellite position, see the globe view (requires WebGL).

§ Visibility from observer

Set your observer location to see the next 7 days of passes ≥ 10°. The values pass through the URL so the page stays shareable.

No JS? Fill the form by hand. The geolocation button needs JavaScript.